This is the latest recevied weather packets stored in our database for station/object S54A-11. If no packets are shown the sender has not sent any weather packets the latest 10 day(s).
| Time | Temp. | Humidity | Pressure | Rain* | Wind** | Luminosity | Snow |
|---|---|---|---|---|---|---|---|
| 1777513417 | 2.22° C | 65% | 1026.4 hPa | - | - | - | - |
| 1777512517 | 2.78° C | 66% | 1026.4 hPa | - | - | - | - |
| 1777511617 | 2.78° C | 65% | 1026.4 hPa | - | - | - | - |
| 1777510717 | 3.33° C | 65% | 1026.2 hPa | - | - | - | - |
| 1777509817 | 3.33° C | 66% | 1026 hPa | - | - | - | - |
| 1777508917 | 3.89° C | 66% | 1026 hPa | - | - | - | - |
| 1777508017 | 4.44° C | 66% | 1026 hPa | - | - | - | - |
| 1777507117 | 5° C | 65% | 1025.8 hPa | - | - | - | - |
| 1777506217 | 4.44° C | 68% | 1025.7 hPa | - | - | - | - |
| 1777505317 | 4.44° C | 71% | 1025.6 hPa | - | - | - | - |
| 1777504416 | 5° C | 66% | 1025.5 hPa | - | - | - | - |
| 1777503516 | 5.56° C | 72% | 1025.4 hPa | - | - | - | - |
| 1777502616 | 5.56° C | 73% | 1025.1 hPa | - | - | - | - |
| 1777501716 | 5.56° C | 68% | 1024.9 hPa | - | - | - | - |
| 1777500816 | 5.56° C | 71% | 1024.7 hPa | - | - | - | - |
| 1777499916 | 5.56° C | 69% | 1024.5 hPa | - | - | - | - |
| 1777499016 | 5.56° C | 71% | 1024.5 hPa | - | - | - | - |
| 1777498116 | 5.56° C | 67% | 1024.5 hPa | - | - | - | - |
| 1777497216 | 6.11° C | 67% | 1024.2 hPa | - | - | - | - |
| 1777496316 | 6.11° C | 67% | 1024.1 hPa | - | - | - | - |
| 1777495416 | 6.67° C | 71% | 1024.1 hPa | - | - | - | - |
| 1777494516 | 6.67° C | 71% | 1024.2 hPa | - | - | - | - |
| 1777493616 | 6.67° C | 72% | 1024 hPa | - | - | - | - |
| 1777492716 | 6.67° C | 72% | 1023.7 hPa | - | - | - | - |
| 1777491816 | 6.67° C | 65% | 1023.6 hPa | - | - | - | - |
* Rain since midnight (hover to see other rain measurements)
** Current wind speed in m/s (hover to see current wind gust speed)